Time,TemperatureF,DewpointF,PressureIn,WindDirection,WindDirectionDegrees,WindSpeedMPH,WindSpeedGustMPH,Humidity,HourlyPrecipIn,Conditions,Clouds,dailyrainin,SoftwareType,DateUTC
2013-05-04 00:02:00,53.0,-99.9,29.97,NNW,334,24.0,35.0,-999,-99.99,,,-99.99,,2013-05-04 05:02:00,
2013-05-04 00:12:00,53.0,-99.9,29.97,NNW,334,24.0,35.0,-999,-99.99,,,-99.99,,2013-05-04 05:12:00,
2013-05-04 00:22:00,53.0,-99.9,29.97,NNW,335,31.0,37.0,-999,-99.99,,,-99.99,,2013-05-04 05:22:00,
2013-05-04 00:32:00,52.0,-99.9,29.97,NNW,348,29.0,35.0,-999,-99.99,,,-99.99,,2013-05-04 05:32:00,
2013-05-04 00:43:00,52.0,-99.9,29.97,NNW,340,30.0,35.0,-999,-99.99,,,-99.99,,2013-05-04 05:43:00,
2013-05-04 00:52:00,52.0,-99.9,29.97,NNW,340,29.0,33.0,-999,-99.99,,,-99.99,,2013-05-04 05:52:00,
2013-05-04 01:02:00,51.0,-99.9,29.97,NNW,345,33.0,38.0,-999,-99.99,,,-99.99,,2013-05-04 06:02:00,
2013-05-04 01:12:00,51.0,-99.9,29.97,NNW,343,32.0,43.0,-999,-99.99,,,-99.99,,2013-05-04 06:12:00,
2013-05-04 01:22:00,50.0,-99.9,29.97,NNW,339,34.0,41.0,-999,-99.99,,,-99.99,,2013-05-04 06:22:00,
2013-05-04 01:32:00,50.0,-99.9,29.96,North,350,34.0,41.0,-999,-99.99,,,-99.99,,2013-05-04 06:32:00,
2013-05-04 01:42:00,51.0,-99.9,29.96,North,357,38.0,39.0,-999,-99.99,,,-99.99,,2013-05-04 06:42:00,
2013-05-04 01:52:00,53.0,-99.9,29.95,North,349,35.0,43.0,-999,-99.99,,,-99.99,,2013-05-04 06:52:00,
2013-05-04 02:01:00,52.0,-99.9,29.95,North,356,42.0,47.0,-999,-99.99,,,-99.99,,2013-05-04 07:01:00,
2013-05-04 02:11:00,53.0,-99.9,29.94,North,351,39.0,45.0,-999,-99.99,,,-99.99,,2013-05-04 07:11:00,
2013-05-04 02:22:00,53.0,-99.9,29.94,North,352,35.0,46.0,-999,-99.99,,,-99.99,,2013-05-04 07:22:00,
2013-05-04 02:32:00,53.0,-99.9,29.94,North,355,34.0,46.0,-999,-99.99,,,-99.99,,2013-05-04 07:32:00,
2013-05-04 02:42:00,53.0,-99.9,29.93,NNW,348,36.0,44.0,-999,-99.99,,,-99.99,,2013-05-04 07:42:00,
2013-05-04 02:52:00,53.0,-99.9,29.94,NNW,346,38.0,47.0,-999,-99.99,,,-99.99,,2013-05-04 07:52:00,
2013-05-04 03:02:00,53.0,-99.9,29.94,North,353,34.0,42.0,-999,-99.99,,,-99.99,,2013-05-04 08:02:00,
2013-05-04 03:12:00,53.0,-99.9,29.93,North,355,37.0,44.0,-999,-99.99,,,-99.99,,2013-05-04 08:12:00,
2013-05-04 03:22:00,53.0,-99.9,29.93,North,353,34.0,45.0,-999,-99.99,,,-99.99,,2013-05-04 08:22:00,
2013-05-04 03:32:00,53.0,-99.9,29.93,North,354,34.0,41.0,-999,-99.99,,,-99.99,,2013-05-04 08:32:00,
2013-05-04 03:42:00,53.0,-99.9,29.93,NNW,348,34.0,43.0,-999,-99.99,,,-99.99,,2013-05-04 08:42:00,
2013-05-04 03:52:00,53.0,-99.9,29.93,NNW,347,33.0,40.0,-999,-99.99,,,-99.99,,2013-05-04 08:52:00,
2013-05-04 04:02:00,53.0,-99.9,29.93,North,350,34.0,40.0,-999,-99.99,,,-99.99,,2013-05-04 09:02:00,
2013-05-04 04:11:00,52.0,-99.9,29.93,North,349,33.0,40.0,-999,-99.99,,,-99.99,,2013-05-04 09:11:00,
2013-05-04 04:22:00,52.0,-99.9,29.93,North,350,32.0,40.0,-999,-99.99,,,-99.99,,2013-05-04 09:22:00,
2013-05-04 04:33:00,52.0,-99.9,29.93,North,349,31.0,41.0,-999,-99.99,,,-99.99,,2013-05-04 09:33:00,
2013-05-04 04:42:00,52.0,-99.9,29.94,NNW,344,30.0,41.0,-999,-99.99,,,-99.99,,2013-05-04 09:42:00,
2013-05-04 04:53:00,51.0,-99.9,29.93,NNW,347,32.0,39.0,-999,-99.99,,,-99.99,,2013-05-04 09:53:00,
2013-05-04 05:03:00,51.0,-99.9,29.92,North,353,32.0,37.0,-999,-99.99,,,-99.99,,2013-05-04 10:03:00,
2013-05-04 05:12:00,51.0,-99.9,29.93,NNW,347,31.0,37.0,-999,-99.99,,,-99.99,,2013-05-04 10:12:00,
2013-05-04 05:23:00,51.0,-99.9,29.93,North,350,32.0,38.0,-999,-99.99,,,-99.99,,2013-05-04 10:23:00,
2013-05-04 05:33:00,52.0,-99.9,29.94,NNW,347,30.0,35.0,-999,-99.99,,,-99.99,,2013-05-04 10:33:00,
2013-05-04 05:42:00,52.0,-99.9,29.94,NNW,342,28.0,35.0,-999,-99.99,,,-99.99,,2013-05-04 10:42:00,
2013-05-04 05:53:00,51.0,-99.9,29.95,NNW,345,31.0,35.0,-999,-99.99,,,-99.99,,2013-05-04 10:53:00,
2013-05-04 06:02:00,51.0,-99.9,29.95,NNW,342,26.0,33.0,-999,-99.99,,,-99.99,,2013-05-04 11:02:00,
2013-05-04 06:12:00,51.0,-99.9,29.95,NNW,343,26.0,33.0,-999,-99.99,,,-99.99,,2013-05-04 11:12:00,
2013-05-04 06:22:00,51.0,-99.9,29.95,NNW,342,27.0,32.0,-999,-99.99,,,-99.99,,2013-05-04 11:22:00,
2013-05-04 06:32:00,51.0,-99.9,29.96,NNW,343,24.0,32.0,-999,-99.99,,,-99.99,,2013-05-04 11:32:00,
2013-05-04 06:46:00,51.0,-99.9,29.96,NNW,345,24.0,29.0,-999,-99.99,,,-99.99,,2013-05-04 11:46:00,
2013-05-04 07:03:00,51.0,-99.9,29.96,NNW,344,26.0,29.0,-999,-99.99,,,-99.99,,2013-05-04 12:03:00,
2013-05-04 07:10:00,51.0,-99.9,29.97,NNW,340,26.0,31.0,-999,-99.99,,,-99.99,,2013-05-04 12:10:00,
2013-05-04 07:30:00,50.0,-99.9,29.98,NNW,334,24.0,30.0,-999,-99.99,,,-99.99,,2013-05-04 12:30:00,
2013-05-04 07:37:00,50.0,-99.9,29.98,NNW,341,24.0,31.0,-999,-99.99,,,-99.99,,2013-05-04 12:37:00,
2013-05-04 07:52:00,51.0,-99.9,29.98,NNW,345,22.0,27.0,-999,-99.99,,,-99.99,,2013-05-04 12:52:00,
2013-05-04 08:02:00,51.0,-99.9,29.98,NNW,345,23.0,27.0,-999,-99.99,,,-99.99,,2013-05-04 13:02:00,
2013-05-04 08:11:00,51.0,-99.9,29.98,NNW,346,23.0,28.0,-999,-99.99,,,-99.99,,2013-05-04 13:11:00,
2013-05-04 08:22:00,51.0,-99.9,29.98,NNW,346,24.0,26.0,-999,-99.99,,,-99.99,,2013-05-04 13:22:00,
2013-05-04 08:32:00,51.0,-99.9,29.98,NNW,342,23.0,26.0,-999,-99.99,,,-99.99,,2013-05-04 13:32:00,
2013-05-04 08:42:00,52.0,-99.9,29.98,NNW,339,22.0,26.0,-999,-99.99,,,-99.99,,2013-05-04 13:42:00,
2013-05-04 08:53:00,52.0,-99.9,29.98,NNW,341,21.0,26.0,-999,-99.99,,,-99.99,,2013-05-04 13:53:00,
2013-05-04 09:02:00,53.0,-99.9,29.98,NNW,336,21.0,26.0,-999,-99.99,,,-99.99,,2013-05-04 14:02:00,
2013-05-04 09:11:00,53.0,-99.9,29.98,NNW,340,23.0,28.0,-999,-99.99,,,-99.99,,2013-05-04 14:11:00,
2013-05-04 09:22:00,54.0,-99.9,29.98,NNW,339,21.0,25.0,-999,-99.99,,,-99.99,,2013-05-04 14:22:00,
2013-05-04 09:32:00,54.0,-99.9,29.99,NNW,331,23.0,25.0,-999,-99.99,,,-99.99,,2013-05-04 14:32:00,
2013-05-04 09:42:00,54.0,-99.9,29.99,NNW,339,24.0,29.0,-999,-99.99,,,-99.99,,2013-05-04 14:42:00,
2013-05-04 09:52:00,55.0,-99.9,29.99,NNW,338,22.0,26.0,-999,-99.99,,,-99.99,,2013-05-04 14:52:00,
2013-05-04 10:02:00,56.0,-99.9,29.99,NNW,336,23.0,26.0,-999,-99.99,,,-99.99,,2013-05-04 15:02:00,
2013-05-04 10:12:00,56.0,-99.9,29.99,NNW,338,21.0,26.0,-999,-99.99,,,-99.99,,2013-05-04 15:12:00,
2013-05-04 10:22:00,57.0,-99.9,29.99,NNW,329,26.0,30.0,-999,-99.99,,,-99.99,,2013-05-04 15:22:00,
2013-05-04 10:33:00,57.0,-99.9,29.99,NNW,328,27.0,31.0,-999,-99.99,,,-99.99,,2013-05-04 15:33:00,
2013-05-04 10:43:00,57.0,-99.9,29.99,NNW,339,27.0,30.0,-999,-99.99,,,-99.99,,2013-05-04 15:43:00,
2013-05-04 10:53:00,58.0,-99.9,29.99,NNW,337,23.0,29.0,-999,-99.99,,,-99.99,,2013-05-04 15:53:00,
2013-05-04 11:03:00,58.0,-99.9,30.00,NNW,335,23.0,32.0,-999,-99.99,,,-99.99,,2013-05-04 16:03:00,
2013-05-04 11:12:00,58.0,-99.9,30.00,NNW,341,26.0,32.0,-999,-99.99,,,-99.99,,2013-05-04 16:12:00,
2013-05-04 11:22:00,59.0,-99.9,29.99,NNW,336,27.0,30.0,-999,-99.99,,,-99.99,,2013-05-04 16:22:00,
2013-05-04 11:33:00,59.0,-99.9,29.99,NNW,335,24.0,31.0,-999,-99.99,,,-99.99,,2013-05-04 16:33:00,
2013-05-04 11:42:00,60.0,-99.9,29.99,NNW,329,25.0,31.0,-999,-99.99,,,-99.99,,2013-05-04 16:42:00,
2013-05-04 11:52:00,60.0,-99.9,29.99,NNW,336,24.0,27.0,-999,-99.99,,,-99.99,,2013-05-04 16:52:00,
2013-05-04 12:02:00,60.0,-99.9,29.98,NNW,342,24.0,31.0,-999,-99.99,,,-99.99,,2013-05-04 17:02:00,
2013-05-04 12:12:00,60.0,-99.9,29.98,NNW,336,24.0,30.0,-999,-99.99,,,-99.99,,2013-05-04 17:12:00,
2013-05-04 12:23:00,61.0,-99.9,29.98,NNW,336,23.0,30.0,-999,-99.99,,,-99.99,,2013-05-04 17:23:00,
2013-05-04 12:33:00,61.0,-99.9,29.98,NNW,338,20.0,30.0,-999,-99.99,,,-99.99,,2013-05-04 17:33:00,
2013-05-04 12:42:00,61.0,-99.9,29.98,NNW,327,21.0,27.0,-999,-99.99,,,-99.99,,2013-05-04 17:42:00,
2013-05-04 12:52:00,61.0,-99.9,29.98,NNW,329,25.0,29.0,-999,-99.99,,,-99.99,,2013-05-04 17:52:00,
2013-05-04 13:01:00,62.0,-99.9,29.97,NNW,330,21.0,30.0,-999,-99.99,,,-99.99,,2013-05-04 18:01:00,
2013-05-04 13:12:00,62.0,-99.9,29.96,NW,324,22.0,25.0,-999,-99.99,,,-99.99,,2013-05-04 18:12:00,
2013-05-04 13:22:00,62.0,-99.9,29.96,NNW,341,22.0,26.0,-999,-99.99,,,-99.99,,2013-05-04 18:22:00,
2013-05-04 13:32:00,62.0,-99.9,29.96,NNW,329,21.0,27.0,-999,-99.99,,,-99.99,,2013-05-04 18:32:00,
2013-05-04 13:42:00,63.0,-99.9,29.96,NNW,343,21.0,27.0,-999,-99.99,,,-99.99,,2013-05-04 18:42:00,
2013-05-04 13:52:00,63.0,-99.9,29.96,NNW,340,21.0,28.0,-999,-99.99,,,-99.99,,2013-05-04 18:52:00,
2013-05-04 14:02:00,63.0,-99.9,29.96,NNW,343,21.0,25.0,-999,-99.99,,,-99.99,,2013-05-04 19:02:00,
2013-05-04 14:11:00,63.0,-99.9,29.96,NNW,330,21.0,25.0,-999,-99.99,,,-99.99,,2013-05-04 19:11:00,
2013-05-04 14:22:00,64.0,-99.9,29.96,NW,325,19.0,25.0,-999,-99.99,,,-99.99,,2013-05-04 19:22:00,
2013-05-04 14:32:00,64.0,-99.9,29.95,NNW,331,22.0,28.0,-999,-99.99,,,-99.99,,2013-05-04 19:32:00,
2013-05-04 14:42:00,64.0,-99.9,29.95,NNW,332,21.0,22.0,-999,-99.99,,,-99.99,,2013-05-04 19:42:00,
2013-05-04 14:52:00,65.0,-99.9,29.95,NNW,340,22.0,24.0,-999,-99.99,,,-99.99,,2013-05-04 19:52:00,
2013-05-04 15:02:00,65.0,-99.9,29.94,NNW,345,22.0,27.0,-999,-99.99,,,-99.99,,2013-05-04 20:02:00,
2013-05-04 15:11:00,65.0,-99.9,29.94,NNW,329,20.0,28.0,-999,-99.99,,,-99.99,,2013-05-04 20:11:00,
2013-05-04 15:22:00,65.0,-99.9,29.94,NNW,343,17.0,22.0,-999,-99.99,,,-99.99,,2013-05-04 20:22:00,
2013-05-04 15:32:00,66.0,-99.9,29.94,NNW,332,22.0,27.0,-999,-99.99,,,-99.99,,2013-05-04 20:32:00,
2013-05-04 15:42:00,66.0,-99.9,29.93,NNW,330,23.0,27.0,-999,-99.99,,,-99.99,,2013-05-04 20:42:00,
2013-05-04 15:52:00,66.0,-99.9,29.93,NNW,334,25.0,31.0,-999,-99.99,,,-99.99,,2013-05-04 20:52:00,
2013-05-04 16:02:00,66.0,-99.9,29.93,NNW,338,17.0,23.0,-999,-99.99,,,-99.99,,2013-05-04 21:02:00,
2013-05-04 16:12:00,66.0,-99.9,29.92,NNW,328,19.0,22.0,-999,-99.99,,,-99.99,,2013-05-04 21:12:00,
2013-05-04 16:22:00,66.0,-99.9,29.92,NNW,336,20.0,26.0,-999,-99.99,,,-99.99,,2013-05-04 21:22:00,
2013-05-04 16:33:00,66.0,-99.9,29.91,NNW,345,17.0,23.0,-999,-99.99,,,-99.99,,2013-05-04 21:33:00,
2013-05-04 16:43:00,67.0,-99.9,29.91,NNW,338,15.0,21.0,-999,-99.99,,,-99.99,,2013-05-04 21:43:00,
2013-05-04 16:53:00,67.0,-99.9,29.91,NNW,336,21.0,24.0,-999,-99.99,,,-99.99,,2013-05-04 21:53:00,
2013-05-04 17:03:00,67.0,-99.9,29.91,NW,324,19.0,26.0,-999,-99.99,,,-99.99,,2013-05-04 22:03:00,
2013-05-04 17:12:00,67.0,-99.9,29.91,NNW,329,20.0,22.0,-999,-99.99,,,-99.99,,2013-05-04 22:12:00,
2013-05-04 17:22:00,67.0,-99.9,29.91,NNW,336,18.0,19.0,-999,-99.99,,,-99.99,,2013-05-04 22:22:00,
2013-05-04 17:33:00,67.0,-99.9,29.91,NNW,339,19.0,21.0,-999,-99.99,,,-99.99,,2013-05-04 22:33:00,
2013-05-04 17:43:00,67.0,-99.9,29.91,NW,326,19.0,21.0,-999,-99.99,,,-99.99,,2013-05-04 22:43:00,
2013-05-04 17:52:00,67.0,-99.9,29.91,NNW,329,15.0,17.0,-999,-99.99,,,-99.99,,2013-05-04 22:52:00,
2013-05-04 18:02:00,67.0,-99.9,29.91,NW,319,14.0,19.0,-999,-99.99,,,-99.99,,2013-05-04 23:02:00,
2013-05-04 18:12:00,67.0,-99.9,29.91,NNW,342,16.0,19.0,-999,-99.99,,,-99.99,,2013-05-04 23:12:00,
2013-05-04 18:22:00,67.0,-99.9,29.91,NNW,341,17.0,19.0,-999,-99.99,,,-99.99,,2013-05-04 23:22:00,
2013-05-04 18:32:00,67.0,-99.9,29.90,NNW,330,11.0,17.0,-999,-99.99,,,-99.99,,2013-05-04 23:32:00,
2013-05-04 18:43:00,67.0,-99.9,29.90,North,350,15.0,17.0,-999,-99.99,,,-99.99,,2013-05-04 23:43:00,
2013-05-04 18:52:00,67.0,-99.9,29.91,NNW,338,15.0,15.0,-999,-99.99,,,-99.99,,2013-05-04 23:52:00,
2013-05-04 19:02:00,67.0,-99.9,29.91,NNW,328,15.0,18.0,-999,-99.99,,,-99.99,,2013-05-05 00:02:00,
2013-05-04 19:12:00,67.0,-99.9,29.91,NNW,330,14.0,16.0,-999,-99.99,,,-99.99,,2013-05-05 00:12:00,
2013-05-04 19:22:00,67.0,-99.9,29.91,NNW,340,14.0,16.0,-999,-99.99,,,-99.99,,2013-05-05 00:22:00,
2013-05-04 19:32:00,67.0,-99.9,29.91,NNW,338,13.0,15.0,-999,-99.99,,,-99.99,,2013-05-05 00:32:00,
2013-05-04 19:42:00,67.0,-99.9,29.91,NNW,340,14.0,15.0,-999,-99.99,,,-99.99,,2013-05-05 00:42:00,
2013-05-04 19:52:00,67.0,-99.9,29.91,NNW,338,11.0,14.0,-999,-99.99,,,-99.99,,2013-05-05 00:52:00,
2013-05-04 20:01:00,67.0,-99.9,29.92,NNW,335,12.0,13.0,-999,-99.99,,,-99.99,,2013-05-05 01:01:00,
2013-05-04 20:11:00,67.0,-99.9,29.92,NNW,341,12.0,15.0,-999,-99.99,,,-99.99,,2013-05-05 01:11:00,
2013-05-04 20:22:00,67.0,-99.9,29.92,NNW,338,13.0,14.0,-999,-99.99,,,-99.99,,2013-05-05 01:22:00,
2013-05-04 20:32:00,67.0,-99.9,29.93,NNW,339,12.0,14.0,-999,-99.99,,,-99.99,,2013-05-05 01:32:00,
2013-05-04 20:42:00,67.0,-99.9,29.93,NNW,334,13.0,14.0,-999,-99.99,,,-99.99,,2013-05-05 01:42:00,
2013-05-04 20:52:00,67.0,-99.9,29.93,NNW,335,11.0,13.0,-999,-99.99,,,-99.99,,2013-05-05 01:52:00,
2013-05-04 21:02:00,67.0,-99.9,29.94,NNW,340,11.0,12.0,-999,-99.99,,,-99.99,,2013-05-05 02:02:00,
2013-05-04 21:12:00,66.0,-99.9,29.94,NNW,343,11.0,13.0,-999,-99.99,,,-99.99,,2013-05-05 02:12:00,
2013-05-04 21:22:00,67.0,-99.9,29.94,NNW,337,12.0,13.0,-999,-99.99,,,-99.99,,2013-05-05 02:22:00,
2013-05-04 21:32:00,67.0,-99.9,29.95,NNW,341,10.0,12.0,-999,-99.99,,,-99.99,,2013-05-05 02:32:00,
2013-05-04 21:42:00,66.0,-99.9,29.95,NNW,340,10.0,12.0,-999,-99.99,,,-99.99,,2013-05-05 02:42:00,
2013-05-04 21:52:00,66.0,-99.9,29.95,NNW,344,9.0,11.0,-999,-99.99,,,-99.99,,2013-05-05 02:52:00,
2013-05-04 22:02:00,66.0,-99.9,29.96,NNW,343,9.0,10.0,-999,-99.99,,,-99.99,,2013-05-05 03:02:00,
2013-05-04 22:12:00,66.0,-99.9,29.96,NNW,338,8.0,10.0,-999,-99.99,,,-99.99,,2013-05-05 03:12:00,
2013-05-04 22:22:00,66.0,-99.9,29.96,NNW,328,7.0,8.0,-999,-99.99,,,-99.99,,2013-05-05 03:22:00,
2013-05-04 22:33:00,65.0,-99.9,29.96,WNW,295,4.0,5.0,-999,-99.99,,,-99.99,,2013-05-05 03:33:00,
2013-05-04 22:43:00,64.0,-99.9,29.96,WNW,285,4.0,5.0,-999,-99.99,,,-99.99,,2013-05-05 03:43:00,
2013-05-04 22:53:00,64.0,-99.9,29.96,WNW,283,4.0,5.0,-999,-99.99,,,-99.99,,2013-05-05 03:53:00,
2013-05-04 23:03:00,64.0,-99.9,29.96,West,279,4.0,5.0,-999,-99.99,,,-99.99,,2013-05-05 04:03:00,
2013-05-04 23:13:00,64.0,-99.9,29.96,WNW,291,4.0,4.0,-999,-99.99,,,-99.99,,2013-05-05 04:13:00,
2013-05-04 23:23:00,65.0,-99.9,29.95,West,275,3.0,4.0,-999,-99.99,,,-99.99,,2013-05-05 04:23:00,
2013-05-04 23:33:00,65.0,-99.9,29.95,West,267,3.0,3.0,-999,-99.99,,,-99.99,,2013-05-05 04:33:00,
2013-05-04 23:43:00,64.0,-99.9,29.95,WSW,251,3.0,5.0,-999,-99.99,,,-99.99,,2013-05-05 04:43:00,
2013-05-04 23:53:00,65.0,-99.9,29.95,West,271,2.0,4.0,-999,-99.99,,,-99.99,,2013-05-05 04:53:00,